Showing default

CHECKMATE 8, 56162

Orbit data source: Space-Track

CHECKMATE 8, 56162 is a payload satellite owned by SDA (US) in LEO that was launched on Sun, 02 Apr 2023 UTC via an FALCON 9 launch vehicle from the Air Force Western Test Range (AFWTR). Payloads include a variety of satellites, spacecraft, and rockets equipped with specific instruments for various scientific and technological missions. These include communications satellites like Starlink; space stations such as the ISS; scientific satellites like the Hubble; Earth observation satellites from companies like Planet Labs, Umbra, and HawkEye 360; GPS; miniature CubeSats for education and research; and military/defense satellites.

Loading next visibility...
CHECKMATE 8 details
Identifier
56162, 2023-050A
Orbit
LEO
Last TLE update16 hours ago
Origin
Flag of USSDA (US)
ManufacturerYork Space Sys
MissionOperational Defense Communications
Bus & MotorS-CLASS, Unknown motor
Mass~300 kg wet, ~300 kg dry
Launch date (UTC)
2023-04-02 (2 years ago)
Launch vehicle
FALCON 9
Launch site
Air Force Western Test Range (AFWTR)
Object type
Payload
Rocket body
Debris
Shape & HBRBox + 1 Pan, 2 m
Radar Cross Section0.945 m², Large (>1 m²)

Expand to show TLE details & history

TLE from 16 hours ago
0 CHECKMATE 8
1 56162U 23050A   25014.93203427  .00000160  00000-0  13258-3 0  9991
2 56162  81.0003 208.7502 0005650 277.9686  82.0829 13.84819225 90415
Epoch: 2025-01-14T22:22Z
Definitive object data (Epoch: 2025-01-14T22:22:07.76Z)
Latitude-0.00002°
Longitude118.58622°
Altitude949.132 km
Speed7.377 km/s
True Right ascension13h 55m 00s
True Declination0° 00' 00"
Sunlit
Object was in daylight at TLE epoch
Visualization TLE readout
Latitude32.73178°
Longitude-67.87786°
Altitude953.638 km
Speed7.377 km/s
Apparent Right ascension02h 18m 48s
Apparent Declination0° 40' 23"
Sunlit
Object is in daylight
Visualization observer readout
Local Sidereal Time15:21:40
Azimuth23.993° NE
Elevation-48.227°
Doppler factor1
Orbital elements
Apogee altitude948.2 km
Perigee altitude939.926 km
Semi-major axis7,322.2 km
Eccentricity0.000565
Inclination81.0003°
RAAN208.7502°
Arg. of periapsis277.9686°
True anomaly82.14703°
Mean anomaly82.0829°
Eccentric anomaly82.11497°
Mean motion3.46402 °/min
BSTAR0.00013258
Orbital period103.93 mins
Loading maneuver chart data...
Loading historical data...
Loading historical data...
Loading historical data...
Loading historical data...
Loading historical data...
Loading historical data...
Loading historical data...

CHECKMATE 8 Visibility forecast

Observer location: undefined°, undefined

Span
Click to sort rows by Start time (UTC) header in descending order
Start Az.
Max El. time (UTC)
Max El. Az.
Max El.
End time (UTC)
End Az.
8 mins2025-01-15 23:13:56.574Z24.467° NE2025-01-15 23:17:56.574Z69.516° E19.704°2025-01-15 23:21:56.574Z112.895° SE
10 mins2025-01-16 00:58:56.574Z337.033° NNW2025-01-16 01:02:56.574Z276.4° WNW39.663°2025-01-16 01:08:56.574Z189.374° SSW
8 mins2025-01-16 12:38:56.574Z141.049° SSE2025-01-16 12:42:56.574Z81.217° E28.624°2025-01-16 12:46:56.574Z33.157° NE
8 mins2025-01-16 14:23:56.574Z236.007° WSW2025-01-16 14:26:56.574Z277.984° WNW29.009°2025-01-16 14:31:56.574Z346.535° N
|